Dewpoint
6 8 7 7 9 8 4 5 11 12 12 11 7 7 3 2 5 6 6 5 4 4 7 9 9 8 8 8 9 10 10 7
5 7 8 8 8 8 5 1 5 10 10 7 5 3 3 4 5 7 7 6 4 7 7 6 6 7 9 10 10 11 11 8
3 6 7 7 8 9 6 -1 -2 1 6 6 2 1 5 6 5 6 6 5 4 6 6 5 4 10 11 10 10 11 10 10
2 4 5 6 6 7 6 -2 -0 -2 6 5 3 5 7 7 6 6 5 5 5 5 5 3 2 9 12 11 11 11 10 10
2 2 4 3 4 3 4 -4 -3 -4 2 4 3 7 7 7 6 5 4 1 0 3 3 1 3 9 12 11 9 9 10 12
2 0 3 3 -2 2 2 -5 -5 -7 -2 -0 3 6 5 4 4 3 0 -2 3 5 6 7 10 12 11 10 10 10 11 12
1 -0 2 -1 -3 2 -2 -5 -5 -4 -2 2 3 3 1 -0 -3 -4 -6 3 7 9 10 10 11 11 9 10 10 11 12 12
0 -1 -1 -3 -2 -1 -6 -6 -6 -4 -4 -2 -3 -5 -6 -6 2 3 4 10 9 9 9 10 10 9 9 10 11 10 11 11
1 -2 -4 -4 -2 -4 -8 -6 -3 -1 -1 1 -2 1 -2 0 8 9 9 10 11 11 11 10 9 10 10 11 10 11 11 11
4 -1 1 -3 -7 -6 -8 -3 5 8 6 3 5 6 6 7 7 7 9 10 12 11 11 10 10 10 10 10 10 10 10 9
7 3 5 6 5 7 7 -3 7 7 6 7 7 7 9 10 8 8 11 10 11 11 12 11 11 10 10 10 9 10 9 8
7 4 7 8 9 9 10 8 4 9 5 8 9 9 9 10 8 10 11 11 12 12 11 11 10 10 9 8 8 8 7 5
9 6 8 9 10 10 10 10 10 9 8 10 9 10 10 11 9 11 11 10 11 11 11 11 10 9 9 6 5 4 4 3
9 7 7 9 10 10 10 10 10 10 10 10 10 11 11 10 10 10 10 10 10 11 11 11 10 9 8 6 3 3 2 1
7 8 5 9 10 10 10 10 11 10 10 10 10 10 11 10 9 10 10 10 10 11 11 11 10 9 8 7 4 2 1 0
8 8 7 8 9 9 9 10 10 10 10 10 10 11 11 10 11 11 11 11 10 10 11 10 10 10 8 7 5 2 1 0
8 8 7 6 8 9 9 9 10 11 10 10 10 10 10 10 11 11 11 11 10 10 11 10 10 10 10 7 3 4 4 3
9 9 8 7 6 7 9 10 10 11 11 11 11 11 11 10 9 11 10 9 10 10 10 10 10 10 10 8 5 2 3 2
9 9 9 8 7 5 8 10 10 10 10 10 11 11 11 12 11 11 10 10 10 10 9 9 9 10 9 8 5 3 3 2
9 9 9 8 9 7 5 10 11 10 11 10 11 10 11 12 11 11 11 11 10 10 9 9 9 9 9 8 5 3 2 1
Wind_Speed
31 29 27 25 25 25 25 25 27 28 29 29 29 30 31 29 28 27 27 27 28 27 22 19 15 12 10 10 13 12 12 11
31 29 28 27 25 23 24 25 26 27 28 29 30 31 30 29 28 27 27 27 27 23 19 18 14 10 9 13 16 18 13 10
30 30 29 27 26 24 24 26 26 27 29 30 31 32 30 28 27 27 26 26 26 20 18 16 15 13 10 14 19 19 12 10
30 29 29 29 28 26 24 26 28 30 31 31 31 31 29 28 27 26 25 24 23 18 14 14 13 14 15 15 16 12 10 8
31 30 29 29 29 28 26 27 28 28 29 30 31 30 29 26 26 24 23 22 21 17 13 11 11 10 13 13 9 11 11 9
32 30 30 28 29 29 29 30 29 30 31 31 31 30 27 25 24 23 21 21 19 16 11 5 4 9 7 4 5 4 7 11
34 32 30 29 29 30 30 32 32 31 32 30 28 27 26 24 23 22 22 19 17 16 13 7 11 8 6 5 4 3 5 9
36 34 31 30 31 31 32 33 33 32 30 28 26 25 25 25 27 26 22 20 14 14 12 9 11 12 9 5 3 3 9 6
38 36 34 31 31 31 32 34 34 33 29 27 27 26 27 27 24 22 19 17 17 18 12 9 9 9 7 4 4 7 8 6
38 39 36 32 32 31 32 36 34 29 28 26 29 25 22 21 20 18 20 23 22 19 15 13 8 7 7 5 6 7 10 8
40 41 40 34 34 32 29 34 32 29 28 29 27 24 19 16 18 18 21 27 24 20 16 12 10 10 8 8 6 8 8 8
41 44 42 39 36 32 30 32 32 27 32 33 29 25 23 21 21 21 25 27 24 20 16 12 9 11 11 9 7 6 6 5
44 46 45 44 41 41 39 37 33 31 35 32 29 27 30 25 23 26 26 21 20 20 17 16 15 13 12 12 10 8 7 8
48 47 47 49 42 43 41 38 35 34 31 29 28 28 30 27 27 25 24 21 20 21 21 21 17 17 15 14 12 10 11 9
50 51 49 52 48 45 40 36 35 33 34 32 31 34 31 32 29 29 26 25 25 24 24 23 21 20 19 11 8 9 17 14
52 51 50 54 52 50 48 48 43 39 37 35 34 36 32 31 32 30 28 27 27 25 24 21 20 20 23 21 17 8 12 11
57 54 51 53 53 51 50 50 46 43 39 37 34 35 35 34 36 33 29 29 28 25 24 25 23 23 23 25 22 13 12 12
59 59 55 53 52 50 52 48 48 46 42 40 39 37 35 34 37 35 30 30 30 28 26 26 25 24 23 23 27 24 21 18
55 58 57 53 51 51 54 50 50 51 46 46 44 42 39 36 36 35 32 30 29 28 27 26 26 26 25 24 24 23 22 19
59 61 58 53 51 52 53 50 46 50 45 46 43 41 39 35 35 35 33 30 29 28 27 25 25 26 27 26 25 25 22 25
Wind_Direction
154 156 153 147 144 144 144 148 148 147 146 145 144 141 140 139 135 133 129 129 131 132 135 131 134 137 145 152 176 175 155 151
157 161 159 155 151 150 146 147 152 153 149 148 145 144 142 140 138 135 132 132 134 133 132 133 122 106 110 158 181 168 166 163
163 164 163 158 155 154 151 150 151 154 152 150 148 147 145 141 138 136 136 137 138 139 134 133 125 112 95 125 168 163 172 173
169 169 167 163 160 158 156 155 152 153 154 153 151 149 147 146 143 139 139 141 144 150 147 139 136 126 133 137 152 165 171 163
172 171 171 168 163 161 159 157 153 153 154 154 154 153 153 150 146 144 145 148 152 158 158 153 144 144 147 154 157 177 172 153
174 173 174 171 167 163 161 159 156 155 156 157 157 157 156 155 152 151 151 148 151 156 163 171 172 149 143 155 166 166 154 158
175 174 175 173 169 165 164 161 159 157 158 158 161 161 158 154 152 156 155 154 162 167 173 155 170 163 185 188 174 169 178 172
176 174 175 174 171 168 166 165 161 161 161 160 161 158 155 153 151 153 154 157 166 175 183 193 198 204 207 182 182 194 165 193
178 172 172 173 175 170 169 167 167 167 166 162 157 157 156 157 157 161 164 179 191 184 194 193 180 181 190 186 171 162 166 193
178 172 168 169 173 167 169 171 170 171 172 162 159 161 165 172 178 188 192 183 183 195 194 178 191 210 207 191 169 177 170 198
180 177 170 171 174 170 167 175 176 176 176 165 166 167 180 192 196 195 190 186 188 194 193 211 218 198 189 175 175 171 193 207
182 180 174 173 177 177 177 176 179 182 178 170 175 182 186 193 192 189 179 180 185 192 207 215 219 207 182 177 188 199 224 238
186 184 179 178 185 189 186 187 180 177 180 179 181 192 198 198 192 191 187 200 203 205 211 216 204 204 192 166 169 189 231 270
192 190 185 183 190 186 186 187 187 188 184 188 195 195 195 193 192 194 201 204 205 208 217 210 210 213 201 176 166 193 212 231
196 195 191 188 189 187 189 189 190 194 193 195 203 200 200 199 200 205 211 211 210 215 220 222 211 212 217 211 181 206 206 217
198 198 196 193 192 190 193 190 193 195 195 196 200 199 198 205 201 206 212 216 216 214 218 227 235 230 215 219 236 219 187 199
201 199 200 199 199 197 198 194 197 198 199 199 199 203 209 212 209 211 215 220 217 217 219 226 234 232 229 223 219 221 226 224
200 200 200 200 201 201 200 197 197 196 198 199 200 205 210 212 214 216 217 215 217 219 224 232 233 234 230 232 228 227 229 223
197 201 201 203 201 203 201 202 203 201 199 201 202 206 211 213 214 214 214 215 219 222 224 231 231 229 230 230 229 235 244 240
200 203 203 204 204 205 204 204 209 208 207 206 208 211 214 216 216 217 219 219 220 224 226 228 230 231 230 230 231 229 231 237
Height
1501 1506 1509 1511 1512 1514 1516 1518 1520 1523 1526 1529 1531 1535 1538 1541 1544 1547 1550 1553 1556 1559 1562 1563 1564 1565 1566 1567 1568 1570 1571 1573
1501 1506 1509 1511 1513 1516 1518 1520 1523 1525 1527 1532 1534 1537 1541 1543 1546 1549 1552 1555 1558 1561 1562 1564 1565 1566 1566 1567 1567 1571 1573 1574
1501 1505 1508 1510 1513 1516 1519 1521 1524 1527 1530 1533 1536 1539 1542 1546 1549 1552 1555 1557 1560 1561 1563 1565 1566 1567 1568 1569 1570 1572 1574 1575
1500 1504 1507 1509 1512 1515 1519 1521 1524 1527 1531 1534 1538 1541 1545 1548 1551 1554 1556 1559 1561 1563 1564 1566 1567 1569 1571 1572 1574 1575 1576 1576
1499 1503 1507 1508 1511 1515 1518 1522 1525 1528 1532 1536 1539 1543 1546 1550 1552 1555 1557 1560 1562 1563 1564 1566 1568 1570 1572 1573 1574 1575 1575 1576
1497 1501 1506 1508 1511 1514 1518 1522 1525 1529 1533 1537 1540 1544 1547 1550 1554 1556 1559 1561 1563 1564 1565 1567 1569 1571 1573 1574 1574 1574 1574 1575
1495 1498 1504 1507 1510 1514 1518 1521 1525 1529 1533 1537 1541 1544 1547 1550 1554 1557 1560 1562 1564 1566 1568 1569 1571 1572 1574 1575 1574 1574 1575 1576
1492 1496 1502 1506 1509 1513 1517 1521 1525 1529 1533 1537 1541 1544 1548 1551 1554 1558 1560 1562 1564 1566 1568 1569 1571 1572 1573 1574 1574 1575 1575 1576
1489 1493 1499 1503 1508 1512 1516 1520 1524 1528 1532 1537 1540 1544 1547 1550 1554 1557 1560 1562 1562 1565 1567 1569 1570 1571 1572 1573 1574 1574 1575 1576
1487 1491 1496 1501 1506 1510 1514 1519 1523 1527 1532 1535 1539 1543 1547 1550 1553 1555 1558 1560 1562 1564 1566 1568 1569 1570 1571 1572 1573 1574 1575 1576
1482 1487 1491 1497 1504 1509 1513 1516 1521 1525 1529 1533 1537 1541 1545 1548 1550 1553 1554 1558 1561 1563 1565 1567 1568 1570 1571 1572 1573 1574 1575 1576
1479 1483 1487 1493 1500 1505 1510 1513 1517 1521 1525 1529 1533 1538 1542 1545 1548 1550 1553 1556 1560 1562 1564 1565 1567 1567 1569 1571 1573 1574 1574 1575
1474 1477 1482 1487 1492 1497 1504 1508 1514 1519 1523 1528 1531 1534 1536 1541 1544 1548 1551 1553 1556 1560 1561 1563 1563 1565 1566 1570 1572 1573 1573 1573
1470 1472 1477 1482 1488 1495 1502 1507 1512 1518 1523 1527 1532 1534 1536 1539 1541 1544 1548 1550 1553 1555 1557 1558 1562 1563 1564 1567 1570 1573 1571 1571
1461 1467 1473 1480 1485 1493 1501 1508 1513 1514 1519 1523 1526 1532 1536 1539 1541 1543 1544 1546 1548 1550 1553 1554 1557 1560 1562 1564 1566 1566 1567 1569
1456 1465 1471 1477 1484 1488 1492 1497 1502 1508 1514 1519 1522 1526 1532 1536 1539 1541 1543 1544 1545 1547 1549 1551 1553 1555 1558 1559 1561 1561 1563 1566
1447 1457 1464 1471 1479 1486 1489 1493 1498 1505 1510 1515 1519 1523 1527 1530 1534 1537 1539 1541 1543 1544 1545 1547 1548 1551 1552 1554 1557 1558 1559 1560
1442 1448 1455 1464 1474 1481 1487 1491 1494 1498 1503 1509 1514 1519 1522 1525 1529 1533 1536 1537 1539 1540 1542 1544 1545 1546 1548 1550 1550 1552 1554 1556
1439 1446 1453 1460 1468 1474 1481 1487 1490 1493 1495 1499 1505 1511 1515 1519 1523 1528 1531 1533 1537 1538 1538 1539 1540 1542 1543 1544 1547 1548 1550 1553
1430 1436 1447 1455 1462 1469 1475 1483 1488 1492 1496 1497 1501 1505 1510 1516 1519 1523 1527 1529 1532 1534 1535 1536 1537 1538 1539 1540 1542 1543 1545 1546